Location: Worth Mountain WMA
(34.9569°N, 81.4819°W)
Time: 15:43:14
(UTC-05:00)

Amateur Radio Satellites - All Passes

Search period start: 25 November 2014 15:13
Search period end: 26 November 2014 15:13
Location: Worth Mountain WMA, 34.9569°N, 81.4819°W

Satellite Date Start Highest point End Downlink Frequencies (MHz)
Time Altitude Azimuth
M-CUBED/EXP-1 PRIME 25 Nov 15:17:27 15:19:28 13° 301° (WNW) 15:21:28 437.505
KKS-1 25 Nov 15:18:43 15:23:05 58° 285° (WNW) 15:27:26 437.445
O/OREOS (USA 219) 25 Nov 15:20:44 15:23:32 16° 60° (ENE) 15:26:20 437.305
MaSat-1 25 Nov 15:21:19 15:24:26 81° 293° (WNW) 15:27:16 437.345
HORYU 2 25 Nov 15:30:42 15:34:49 38° 261° (W) 15:38:58 437.375
JAS-2 25 Nov 15:43:23 15:49:24 26° 63° (ENE) 15:55:34 435.910
YUBILEINY 25 Nov 16:00:59 16:06:48 20° 279° (W) 16:12:38 435.215
PHONESAT 2.4 25 Nov 16:13:50 16:17:27 50° 344° (NNW) 16:21:06 2401.200-2431.200
STARS 25 Nov 16:16:45 16:19:56 20° 292° (WNW) 16:23:06 437.465
AO-7 25 Nov 16:17:25 16:25:35 64° 256° (WSW) 16:33:50 29.400- 29.500
MOZHAYETS 4 25 Nov 16:20:25 16:23:02 15° 93° (E) 16:25:38
VERMONT LUNAR 25 Nov 16:27:43 16:31:07 38° 350° (N) 16:34:32 437.305
RS-15 25 Nov 16:48:02 16:59:03 79° 300° (WNW) 17:10:02 29.354- 29.394
Cubesat XI-IV 25 Nov 16:52:08 16:55:51 19° 65° (ENE) 16:59:33 437.490
O/OREOS (USA 219) 25 Nov 16:58:54 17:03:06 40° 255° (WSW) 17:07:17 437.305
JAS-2 25 Nov 17:26:21 17:33:44 62° 260° (W) 17:41:32 435.910
CUTE-I 25 Nov 17:32:03 17:37:08 46° 72° (ENE) 17:42:13 437.470
PRISM 25 Nov 17:43:41 17:46:48 20° 95° (E) 17:49:53 437.425
PHONESAT 2.4 25 Nov 17:53:16 17:56:41 33° 1° (N) 18:00:06 2401.200-2431.200
MOZHAYETS 4 25 Nov 17:56:00 18:00:26 45° 287° (WNW) 18:04:51
GONETS M04 25 Nov 17:59:13 18:02:56 13° 63° (ENE) 18:06:38
CUBESAT XI-V 25 Nov 18:01:14 18:02:49 12° 91° (E) 18:04:24 437.345
VERMONT LUNAR 25 Nov 18:06:42 18:10:05 35° 8° (N) 18:13:28 437.305
STRAND 1 25 Nov 18:18:23 18:21:55 19° 94° (E) 18:25:27 437.568
Cubesat XI-IV 25 Nov 18:30:22 18:35:32 48° 260° (W) 18:40:42 437.490
RS-15 25 Nov 19:05:26 19:13:26 22° 325° (NW) 19:21:32 29.354- 29.394
BEESAT 2 25 Nov 19:08:56 19:09:50 11° 107° (ESE) 19:10:44 435.950
HO-68 25 Nov 19:12:41 19:17:51 22° 61° (ENE) 19:23:01 435.675
CUTE-I 25 Nov 19:13:38 19:17:21 19° 266° (W) 19:21:05 437.470
PRISM 25 Nov 19:18:42 19:22:19 28° 289° (WNW) 19:25:54 437.425
PCSat 25 Nov 19:20:51 19:25:57 44° 110° (ESE) 19:31:04 145.827
BRITE-PL 25 Nov 19:28:06 19:30:28 14° 67° (ENE) 19:32:45 437.365/2234.400
PHONESAT 2.4 25 Nov 19:32:11 19:35:52 60° 18° (NNE) 19:39:32 2401.200-2431.200
CUBESAT XI-V 25 Nov 19:36:01 19:40:35 56° 285° (WNW) 19:45:05 437.345
AIST 2 25 Nov 19:40:42 19:42:22 12° 107° (ESE) 19:44:03 435.215
VERMONT LUNAR 25 Nov 19:45:10 19:48:48 87° 204° (SSW) 19:52:26 437.305
GONETS M04 25 Nov 19:52:20 20:01:12 79° 83° (E) 20:09:57
STRAND 1 25 Nov 19:56:27 20:01:14 42° 289° (WNW) 20:06:00 437.568
SEEDS 25 Nov 19:56:59 20:00:03 20° 69° (ENE) 20:03:09 437.485
DOVE 4 25 Nov 19:59:17 20:01:38 14° 68° (ENE) 20:03:56 437.250
AAUSAT CUBESAT 2 25 Nov 20:14:20 20:17:38 24° 70° (ENE) 20:20:58 437.432
AIST 1 25 Nov 20:16:29 20:20:48 58° 278° (W) 20:25:10
DX 1 25 Nov 20:23:17 20:25:45 15° 66° (ENE) 20:28:14 434.975-435.025
CANX-2 25 Nov 20:23:18 20:27:24 54° 75° (ENE) 20:31:32 2200.000
DELFI C3 25 Nov 20:23:29 20:24:57 12° 66° (ENE) 20:26:25 145.870
BEESAT 3 25 Nov 20:28:21 20:32:25 73° 300° (WNW) 20:36:34 437.485
COMPASS 1 25 Nov 20:28:42 20:32:35 40° 73° (ENE) 20:36:30 437.405
CINEMA 3 25 Nov 20:36:54 20:40:12 21° 70° (ENE) 20:43:24 145.822/145.860
GOMX 1 25 Nov 20:37:00 20:41:43 52° 75° (ENE) 20:46:08 467.674
BEESAT 2 25 Nov 20:43:34 20:47:35 54° 301° (WNW) 20:51:41 435.950
ZACube-1 25 Nov 20:51:58 20:53:57 13° 67° (ENE) 20:55:55 437.345
HO-68 25 Nov 20:57:47 21:04:54 66° 257° (WSW) 21:12:04 435.675
CUTE 1.7 & AOD 2 25 Nov 20:57:58 21:02:07 60° 260° (W) 21:06:18 437.475
BRITE-PL 25 Nov 21:03:30 21:08:35 58° 259° (W) 21:13:16 437.365/2234.400
PCSat 25 Nov 21:05:17 21:09:31 23° 307° (NW) 21:13:47 145.827
PHONESAT 2.4 25 Nov 21:11:15 21:14:32 30° 213° (SSW) 21:17:48 2401.200-2431.200
AIST 2 25 Nov 21:16:24 21:20:30 50° 302° (WNW) 21:24:40 435.215
AISAT 25 Nov 21:16:53 21:19:57 18° 68° (ENE) 21:23:01 437.250
UKube-1 25 Nov 21:21:59 21:26:18 70° 75° (ENE) 21:30:39 .
VERMONT LUNAR 25 Nov 21:24:37 21:26:56 16° 217° (SW) 21:29:14 437.305
FUNcube-1 25 Nov 21:25:07 21:28:52 32° 72° (ENE) 21:32:35 145.935
RS-15 25 Nov 21:29:09 21:32:12 11° 3° (N) 21:35:16 29.354- 29.394
SEEDS 25 Nov 21:32:09 21:35:42 27° 264° (W) 21:39:17 437.485
Oscar 11 25 Nov 21:33:36 21:37:53 76° 258° (WSW) 21:42:12 145.826/435.025
DOVE 4 25 Nov 21:34:32 21:39:04 47° 260° (W) 21:43:22 437.250
CUBEBUG 2 25 Nov 21:49:00 21:53:19 89° 258° (WSW) 21:57:32 437.445
UWE-3 25 Nov 21:49:54 21:54:10 80° 77° (ENE) 21:58:22 435.000/436.395/437.385
AAUSAT CUBESAT 2 25 Nov 21:49:57 21:53:13 22° 264° (W) 21:56:31 437.432
GONETS M04 25 Nov 21:51:31 21:56:53 18° 280° (W) 22:02:14
DELFI C3 25 Nov 21:55:55 21:59:49 46° 261° (W) 22:03:45 145.870
DX 1 25 Nov 21:57:28 22:01:37 42° 261° (W) 22:05:47 434.975-435.025
50 SAT 25 Nov 22:02:10 22:05:59 42° 74° (ENE) 22:09:48 437.505
COMPASS 1 25 Nov 22:06:31 22:08:29 13° 267° (W) 22:10:27 437.405
HUMSAT D 25 Nov 22:11:05 22:15:13 70° 76° (ENE) 22:19:19 437.325/437.525
CINEMA 3 25 Nov 22:13:26 22:17:14 28° 263° (W) 22:20:57 145.822/145.860
ANTELSAT 25 Nov 22:14:35 22:17:55 20° 95° (E) 22:21:18 437.575/2403.000
GOMX 1 25 Nov 22:17:47 22:19:59 13° 266° (W) 22:22:08 467.674
ESTCUBE 1 25 Nov 22:23:35 22:27:43 36° 72° (ENE) 22:31:53 437.505/2401.250
VELOX 1 25 Nov 22:25:38 22:30:06 74° 258° (WSW) 22:34:35 145.980
ZACube-1 25 Nov 22:25:55 22:29:57 43° 261° (W) 22:33:56 437.345
POLYITAN 1 25 Nov 22:35:27 22:38:47 22° 96° (E) 22:42:06 437.675
QB50P2 25 Nov 22:37:31 22:40:56 24° 96° (E) 22:44:21 145.880/145.840
DUCHIFAT 1 25 Nov 22:43:36 22:47:12 27° 97° (E) 22:50:47 145.980
TISAT 1 25 Nov 22:47:50 22:50:15 15° 67° (ENE) 22:52:39 437.305
CUSAT 1 25 Nov 22:48:25 22:49:06 10° 75° (ENE) 22:49:47 437.405
AISAT 25 Nov 22:52:12 22:56:18 35° 262° (W) 23:00:25 437.250
SPROUT 25 Nov 22:56:32 22:59:13 16° 68° (ENE) 23:01:54 437.525
FUNcube-1 25 Nov 23:02:34 23:05:16 17° 266° (W) 23:07:58 145.935
NANOSAT C BR1 25 Nov 23:02:35 23:06:40 47° 100° (E) 23:10:43 145.865
CUBEBUG 1 25 Nov 23:05:35 23:10:02 76° 258° (WSW) 23:14:29 437.445
TIGRISAT 25 Nov 23:08:04 23:12:31 85° 102° (ESE) 23:17:04 435.000
DANDE 25 Nov 23:10:54 23:13:44 15° 77° (ENE) 23:16:59 436.750
JUGNU 25 Nov 23:11:00 23:13:18 12° 167° (SSE) 23:15:36 437.505
QB50P1 25 Nov 23:12:22 23:16:33 64° 101° (E) 23:20:44 145.935-145.965
UNISAT 6 25 Nov 23:21:37 23:26:03 66° 284° (WNW) 23:30:34 437.425
BUGSAT 1 25 Nov 23:24:23 23:28:28 73° 102° (ESE) 23:32:29 437.445
ISS 25 Nov 23:30:29 23:33:45 71° 318° (NW) 23:37:02 145.825
POPSAT HIP 1 25 Nov 23:37:10 23:41:20 62° 285° (WNW) 23:45:29 437.405
50 SAT 25 Nov 23:40:09 23:41:29 11° 267° (W) 23:42:49 437.505
RS-15 25 Nov 23:41:43 23:50:37 26° 39° (NE) 23:59:44 29.354- 29.394
ANTELSAT 25 Nov 23:50:47 23:54:42 31° 288° (WNW) 23:58:42 437.575/2403.000
ESTCUBE 1 26 Nov 00:01:36 00:04:40 18° 266° (W) 00:07:45 437.505/2401.250
BEESAT 26 Nov 00:09:02 00:12:20 19° 67° (ENE) 00:15:38 436.000
POLYITAN 1 26 Nov 00:11:12 00:14:39 25° 290° (WNW) 00:18:04 437.675
QB50P2 26 Nov 00:13:23 00:16:44 23° 290° (WNW) 00:20:05 145.880/145.840
DUCHIFAT 1 26 Nov 00:19:47 00:22:53 20° 291° (WNW) 00:25:58 145.980
TISAT 1 26 Nov 00:21:43 00:25:43 39° 261° (W) 00:29:45 437.305
AUBIESAT-1 26 Nov 00:22:12 00:25:58 43° 68° (ENE) 00:30:05 437.475
M-CUBED/EXP-1 PRIME 26 Nov 00:27:11 00:31:03 55° 69° (ENE) 00:35:18 437.505
CUSAT 1 26 Nov 00:27:12 00:32:08 80° 262° (W) 00:38:46 437.405
SPROUT 26 Nov 00:30:59 00:34:59 37° 262° (W) 00:38:59 437.525
NANOSAT C BR1 26 Nov 00:40:24 00:42:06 12° 294° (WNW) 00:43:48 145.865
DANDE 26 Nov 00:52:23 00:57:03 54° 263° (W) 01:03:20 436.750
JUGNU 26 Nov 00:57:43 01:01:34 18° 177° (S) 01:05:27 437.505
ITUPSAT 1 26 Nov 01:02:51 01:07:38 70° 75° (ENE) 01:12:26 437.325
MaSat-1 26 Nov 01:02:54 01:05:11 53° 66° (ENE) 01:07:35 437.345
YUBILEINY 26 Nov 01:07:28 01:11:44 15° 78° (ENE) 01:15:59 435.215
SRMSAT 26 Nov 01:08:45 01:11:56 15° 169° (S) 01:15:06 437.500
ISS 26 Nov 01:09:59 01:10:54 11° 335° (NNW) 01:11:49 145.825
SWISSCUBE 26 Nov 01:13:51 01:18:39 81° 257° (WSW) 01:23:29 437.505
STARS 26 Nov 01:34:45 01:37:51 19° 68° (ENE) 01:40:57 437.465
Oscar 19 26 Nov 01:39:16 01:44:18 51° 100° (E) 01:49:20 437.125/150
BEESAT 26 Nov 01:45:23 01:49:51 39° 261° (W) 01:54:21 436.000
RS-15 26 Nov 01:53:17 02:04:38 88° 62° (ENE) 02:16:31 29.354- 29.394
AUBIESAT-1 26 Nov 01:59:28 02:01:16 13° 265° (W) 02:03:09 437.475
KKS-1 26 Nov 02:13:34 02:18:01 83° 77° (ENE) 02:22:29 437.445
ITAMSAT 1 26 Nov 02:32:03 02:37:11 63° 101° (ESE) 02:42:17 435.822/435.867
SO-50 26 Nov 02:37:44 02:40:12 15° 108° (ESE) 02:42:41 436.795
JUGNU 26 Nov 02:46:16 02:49:53 17° 187° (S) 02:53:31 437.505
SRMSAT 26 Nov 02:56:23 03:00:23 19° 180° (S) 03:04:24 437.500
YUBILEINY 26 Nov 02:58:22 03:07:12 89° 95° (E) 03:16:01 435.215
Gurwin Techsat 1B 26 Nov 03:03:37 03:08:56 73° 102° (ESE) 03:14:13 435.225
STARS 26 Nov 03:10:09 03:14:05 32° 262° (W) 03:18:03 437.465
Oscar 19 26 Nov 03:19:58 03:23:11 17° 295° (WNW) 03:26:25 437.125/150
HORYU 2 26 Nov 03:25:18 03:29:41 51° 100° (E) 03:34:04 437.375
RS-15 26 Nov 04:08:10 04:15:37 20° 259° (W) 04:23:18 29.354- 29.394
PCSat 26 Nov 04:12:45 04:16:38 20° 51° (NE) 04:20:29 145.827
ITAMSAT 1 26 Nov 04:13:30 04:16:06 14° 297° (WNW) 04:18:41 435.822/435.867
SO-50 26 Nov 04:15:55 04:20:15 48° 303° (WNW) 04:24:44 436.795
AO-7 26 Nov 04:22:38 04:30:49 56° 103° (ESE) 04:38:58 29.400- 29.500
PRISM 26 Nov 04:34:08 04:34:50 10° 65° (ENE) 04:35:32 437.425
JAS-2 26 Nov 04:42:00 04:47:25 25° 92° (E) 04:52:20 435.910
SRMSAT 26 Nov 04:45:34 04:48:51 15° 190° (S) 04:52:09 437.500
Gurwin Techsat 1B 26 Nov 04:46:02 04:48:13 13° 297° (WNW) 04:50:24 435.225
BEESAT 3 26 Nov 04:51:51 04:55:23 26° 53° (NE) 04:58:51 437.485
MOZHAYETS 4 26 Nov 04:54:25 04:58:59 71° 259° (W) 05:03:36
YUBILEINY 26 Nov 05:00:09 05:05:07 16° 294° (WNW) 05:10:07 435.215
HORYU 2 26 Nov 05:03:48 05:05:53 13° 295° (WNW) 05:07:59 437.375
BEESAT 2 26 Nov 05:07:06 05:10:55 33° 55° (NE) 05:14:42 435.950
O/OREOS (USA 219) 26 Nov 05:28:48 05:32:48 32° 104° (ESE) 05:36:47 437.305
STRAND 1 26 Nov 05:31:18 05:35:02 21° 67° (ENE) 05:38:47 437.568
AIST 2 26 Nov 05:41:36 05:45:38 38° 56° (NE) 05:49:35 435.215
CUTE-I 26 Nov 05:53:12 05:57:24 24° 95° (E) 06:01:35 437.470
PCSat 26 Nov 05:55:05 06:00:22 54° 248° (WSW) 06:05:37 145.827
ISS 26 Nov 06:01:48 06:04:44 29° 36° (NE) 06:07:40 145.825
PRISM 26 Nov 06:05:43 06:09:50 57° 259° (W) 06:14:01 437.425
AO-7 26 Nov 06:16:10 06:23:07 31° 299° (WNW) 06:30:04 29.400- 29.500
JAS-2 26 Nov 06:26:08 06:32:45 47° 291° (WNW) 06:38:37 435.910
AIST 1 26 Nov 06:27:55 06:31:28 24° 77° (ENE) 06:34:59
BEESAT 3 26 Nov 06:30:06 06:33:30 24° 249° (WSW) 06:36:51 437.485
CUBESAT XI-V 26 Nov 06:35:50 06:40:33 85° 258° (WSW) 06:45:18 437.345
BEESAT 2 26 Nov 06:46:02 06:48:57 18° 250° (WSW) 06:51:49 435.950
Cubesat XI-IV 26 Nov 06:50:53 06:56:14 90° 280° (W) 07:01:32 437.490
GONETS M04 26 Nov 06:56:40 07:01:44 17° 79° (E) 07:06:49
O/OREOS (USA 219) 26 Nov 07:08:55 07:12:13 20° 299° (WNW) 07:15:31 437.305
STRAND 1 26 Nov 07:09:04 07:13:54 41° 261° (W) 07:18:45 437.568
AIST 2 26 Nov 07:21:12 07:23:55 17° 251° (WSW) 07:26:37 435.215
CUTE-I 26 Nov 07:32:41 07:37:30 36° 290° (WNW) 07:42:18 437.470
ISS 26 Nov 07:38:38 07:41:16 22° 230° (SW) 07:43:53 145.825
AIST 1 26 Nov 08:05:36 08:08:59 22° 271° (W) 08:12:19
CANX-2 26 Nov 08:14:11 08:16:01 12° 92° (E) 08:17:50 2200.000
HO-68 26 Nov 08:29:48 08:35:52 29° 97° (E) 08:41:53 435.675
GOMX 1 26 Nov 08:43:12 08:45:55 17° 95° (E) 08:48:41 467.674
CUTE 1.7 & AOD 2 26 Nov 08:47:09 08:50:54 29° 97° (E) 08:54:37 437.475
GONETS M04 26 Nov 08:48:33 08:57:21 83° 276° (W) 09:06:15
BRITE-PL 26 Nov 09:11:47 09:15:50 53° 100° (E) 09:19:59 437.365/2234.400
ANTELSAT 26 Nov 09:12:51 09:14:30 12° 66° (ENE) 09:16:09 437.575/2403.000
UKube-1 26 Nov 09:14:46 09:17:18 15° 94° (E) 09:19:49 .
SEEDS 26 Nov 09:19:31 09:23:45 62° 101° (E) 09:27:59 437.485
Oscar 11 26 Nov 09:24:58 09:28:32 24° 96° (E) 09:32:05 145.826/435.025
POLYITAN 1 26 Nov 09:27:38 09:29:23 12° 66° (ENE) 09:31:07 437.675
QB50P2 26 Nov 09:29:20 09:31:16 13° 66° (ENE) 09:33:13 145.880/145.840
DUCHIFAT 1 26 Nov 09:34:44 09:37:07 15° 67° (ENE) 09:39:29 145.980
AAUSAT CUBESAT 2 26 Nov 09:35:53 09:40:07 72° 101° (ESE) 09:44:21 437.432
DOVE 4 26 Nov 09:36:47 09:40:55 55° 100° (E) 09:45:10 437.250
DELFI C3 26 Nov 09:40:18 09:43:59 30° 97° (E) 09:47:38 145.870
UWE-3 26 Nov 09:44:03 09:47:12 20° 95° (E) 09:50:25 435.000/436.395/437.385
CUBEBUG 2 26 Nov 09:44:04 09:47:31 23° 96° (E) 09:51:01 437.445
CANX-2 26 Nov 09:48:03 09:52:09 45° 286° (WNW) 09:56:15 2200.000
DX 1 26 Nov 09:49:15 09:53:21 40° 99° (E) 09:57:25 434.975-435.025
COMPASS 1 26 Nov 09:51:24 09:55:36 63° 284° (WNW) 09:59:48 437.405
NANOSAT C BR1 26 Nov 09:53:00 09:56:26 24° 70° (ENE) 09:59:52 145.865
HUMSAT D 26 Nov 10:00:32 10:02:55 15° 94° (E) 10:05:18 437.325/437.525
QB50P1 26 Nov 10:02:33 10:06:19 31° 72° (ENE) 10:10:05 145.935-145.965
TIGRISAT 26 Nov 10:04:08 10:08:13 48° 74° (ENE) 10:12:19 435.000
CINEMA 3 26 Nov 10:10:46 10:15:02 83° 102° (ESE) 10:19:26 145.822/145.860
BUGSAT 1 26 Nov 10:11:40 10:15:29 33° 72° (ENE) 10:19:17 437.445
HO-68 26 Nov 10:16:54 10:23:40 46° 292° (WNW) 10:30:23 435.675
UNISAT 6 26 Nov 10:17:46 10:22:01 73° 76° (ENE) 10:26:17 437.425
ZACube-1 26 Nov 10:17:49 10:21:53 42° 99° (E) 10:26:00 437.345
GOMX 1 26 Nov 10:20:25 10:24:06 31° 287° (WNW) 10:27:53 467.674
VELOX 1 26 Nov 10:20:31 10:24:16 27° 97° (E) 10:27:59 145.980
CUTE 1.7 & AOD 2 26 Nov 10:23:29 10:26:37 20° 291° (WNW) 10:29:45 437.475
POPSAT HIP 1 26 Nov 10:26:53 10:31:05 62° 75° (ENE) 10:35:18 437.405
AISAT 26 Nov 10:46:29 10:50:50 56° 101° (E) 10:55:09 437.250
ANTELSAT 26 Nov 10:46:43 10:50:51 49° 260° (W) 10:55:00 437.575/2403.000
UKube-1 26 Nov 10:49:34 10:53:34 38° 288° (WNW) 10:57:34 .
GONETS M04 26 Nov 10:51:18 10:55:31 14° 296° (WNW) 10:59:45
FUNcube-1 26 Nov 10:52:40 10:56:54 71° 284° (WNW) 11:01:13 145.935
CUBEBUG 1 26 Nov 10:58:50 11:02:26 25° 96° (E) 11:05:59 437.445
POLYITAN 1 26 Nov 11:00:45 11:04:53 48° 260° (W) 11:09:01 437.675
Oscar 11 26 Nov 11:01:05 11:04:35 24° 290° (WNW) 11:08:04 145.826/435.025
QB50P2 26 Nov 11:02:41 11:06:46 46° 260° (W) 11:10:52 145.880/145.840
DUCHIFAT 1 26 Nov 11:08:38 11:12:38 39° 261° (W) 11:16:38 145.980
DELFI C3 26 Nov 11:16:15 11:19:02 18° 291° (WNW) 11:21:49 145.870
DOVE 4 26 Nov 11:17:33 11:18:15 10° 294° (WNW) 11:18:57 437.250
UWE-3 26 Nov 11:20:04 11:23:43 28° 288° (WNW) 11:27:26 435.000/436.395/437.385
CUBEBUG 2 26 Nov 11:20:41 11:24:07 24° 289° (WNW) 11:27:38 437.445
50 SAT 26 Nov 11:21:25 11:25:27 64° 284° (WNW) 11:29:29 437.505
DX 1 26 Nov 11:26:44 11:29:13 15° 294° (WNW) 11:31:42 434.975-435.025
NANOSAT C BR1 26 Nov 11:28:49 11:32:13 23° 264° (W) 11:35:37 145.865
HUMSAT D 26 Nov 11:34:59 11:38:49 36° 287° (WNW) 11:42:41 437.325/437.525
QB50P1 26 Nov 11:39:20 11:42:14 18° 265° (W) 11:45:08 145.935-145.965
TIGRISAT 26 Nov 11:43:54 11:45:13 11° 268° (W) 11:46:31 435.000
BUGSAT 1 26 Nov 11:48:14 11:51:01 17° 265° (W) 11:53:49 437.445
ZACube-1 26 Nov 11:55:42 11:57:53 14° 292° (WNW) 12:00:06 437.345
ESTCUBE 1 26 Nov 11:56:14 12:00:44 64° 285° (WNW) 12:05:11 437.505/2401.250
VELOX 1 26 Nov 11:57:15 12:00:41 23° 291° (WNW) 12:04:07 145.980
TISAT 1 26 Nov 12:10:10 12:14:07 39° 99° (E) 12:18:03 437.305
SPROUT 26 Nov 12:20:59 12:25:07 47° 99° (E) 12:29:14 437.525
AISAT 26 Nov 12:25:28 12:26:56 12° 295° (WNW) 12:28:25 437.250
DANDE 26 Nov 12:26:09 12:26:32 10° 94° (E) 12:26:54 436.750
CUBEBUG 1 26 Nov 12:35:13 12:38:41 23° 290° (WNW) 12:42:07 437.445
VERMONT LUNAR 26 Nov 12:36:34 12:37:15 10° 140° (SE) 12:37:56 437.305
SO-50 26 Nov 12:50:15 12:55:06 61° 59° (ENE) 12:59:56 436.795
Oscar 19 26 Nov 12:52:55 12:57:52 53° 73° (ENE) 13:02:50 437.125/150
ITUPSAT 1 26 Nov 13:07:46 13:11:36 24° 96° (E) 13:15:25 437.325
YUBILEINY 26 Nov 13:13:16 13:21:12 38° 75° (ENE) 13:29:03 435.215
SWISSCUBE 26 Nov 13:18:09 13:22:30 34° 98° (E) 13:26:48 437.505
CUSAT 1 26 Nov 13:39:34 13:41:55 24° 281° (W) 13:44:07 437.405
AUBIESAT-1 26 Nov 13:42:29 13:47:23 68° 106° (ESE) 13:52:06 437.475
ITAMSAT 1 26 Nov 13:46:40 13:51:50 68° 74° (ENE) 13:57:02 435.822/435.867
TISAT 1 26 Nov 13:47:19 13:49:36 14° 293° (WNW) 13:51:52 437.305
M-CUBED/EXP-1 PRIME 26 Nov 13:47:59 13:52:57 85° 107° (ESE) 13:57:44 437.505
BEESAT 26 Nov 13:48:48 13:53:35 69° 102° (ESE) 13:58:20 436.000
SPROUT 26 Nov 13:58:55 14:00:46 13° 294° (WNW) 14:02:37 437.525
PHONESAT 2.4 26 Nov 14:02:33 14:05:58 36° 148° (SSE) 14:09:24 2401.200-2431.200
RS-15 26 Nov 14:07:11 14:12:31 15° 99° (E) 14:17:47 29.354- 29.394
DANDE 26 Nov 14:08:38 14:09:51 12° 283° (WNW) 14:11:01 436.750
KKS-1 26 Nov 14:09:08 14:12:28 21° 95° (E) 14:15:47 437.445
VERMONT LUNAR 26 Nov 14:11:40 14:15:14 61° 153° (SSE) 14:18:49 437.305
HORYU 2 26 Nov 14:21:05 14:24:59 31° 71° (ENE) 14:28:54 437.375
Gurwin Techsat 1B 26 Nov 14:21:21 14:26:40 82° 76° (ENE) 14:32:00 435.225
MaSat-1 26 Nov 14:28:18 14:30:46 22° 109° (ESE) 14:33:03 437.345
SO-50 26 Nov 14:32:49 14:35:07 13° 253° (WSW) 14:37:25 436.795
Oscar 19 26 Nov 14:34:38 14:37:28 15° 267° (W) 14:40:18 437.125/150
ITUPSAT 1 26 Nov 14:45:17 14:49:27 30° 290° (WNW) 14:53:36 437.325
SWISSCUBE 26 Nov 14:56:31 15:00:06 21° 292° (WNW) 15:03:41 437.505
STARS 26 Nov 15:03:05 15:07:26 59° 101° (E) 15:11:45 437.465
